#timestamp,LO_Frequency,Hit,StdDev 
1552417215.3,286046998.2,N
1552417235.1,286047002.7,N
1552417236.0,286047002.7,N
1552417255.8,286047001.9,N
1552417275.7,286047002.7,N
1552417295.5,286047001.0,N
1552417315.3,286047000.9,N
1552417335.2,286047000.9,N
1552417355.0,286047001.1,N
1552417355.9,286047001.1,N
1552417375.8,286046999.9,N
1552417395.6,286047001.0,N
1552417415.4,286046998.1,N
1552417435.3,286047001.1,N
1552417455.1,286046998.8,N
1552417475.8,286046999.0,N
1552417495.7,286046998.1,N
1552417515.5,286046999.1,N
1552417535.4,286047000.7,N
1552417555.2,286046998.2,N
1552417575.0,286046998.2,N
1552417575.9,286046998.2,N
1552417595.8,286047000.1,N
1552417615.6,286047001.9,N
1552417635.4,286047000.0,N
1552417655.3,286046999.3,N
1552417675.1,286046999.5,N
1552417695.9,286046997.3,N
1552417715.7,286046996.5,N
1552417735.5,286046999.4,N
1552417755.4,286046999.0,N
1552417775.2,286046996.5,N
1552417795.0,286046998.5,N
1552417795.9,286046998.5,N
1552417815.8,286046998.4,N
1552417835.6,286046998.2,N
1552417855.5,286047001.2,N
1552417875.3,286047000.9,N
1552417895.1,286046998.5,N
1552417915.9,286046998.7,N
1552417935.7,286046998.5,N
1552417955.5,286046998.7,N
1552417975.4,286046998.8,N
1552417995.2,286046999.6,N
1552418015.1,286046997.0,N
1552418016.0,286046997.0,N
1552418035.8,286046999.2,N
1552418055.6,286046996.7,N
1552418075.5,286046996.7,N
1552418095.3,286046995.0,Y
1552418115.1,286046999.1,P
1552418135.9,286047000.3,N
1552418155.7,286046998.3,N
1552418175.6,286046996.5,Y
1552418195.4,286046999.0,P
1552418215.2,286046997.0,P
1552418235.1,286046999.5,N
1552418236.0,286046999.5,N
1552418255.8,286047000.2,N
1552418275.6,286047004.4,Y
1552418295.5,286047001.8,P
1552418315.3,286047001.7,N
1552418335.2,286047003.7,N
1552418355.9,286047003.5,N
1552418375.7,286047001.3,N
1552418395.6,286047003.4,N
1552418415.4,286047003.5,N
1552418435.3,286047003.3,N
1552418455.1,286047003.3,N
1552418456.0,286047003.3,N
1552418475.8,286047003.8,N
1552418495.7,286047004.3,Y
1552418515.5,286047000.2,P
1552418535.3,286047002.0,N
1552418555.2,286047002.1,N
1552418575.0,286047001.4,N
1552418575.9,286047001.4,N
1552418595.8,286047003.1,Y
1552418615.6,286047002.2,P
1552418635.4,286047000.0,N
1552418655.3,286047002.7,N
1552418675.1,286046999.9,N
1552418695.8,286047000.2,N
1552418715.7,286046999.8,N
1552418735.5,286047000.8,N
1552418755.4,286046998.7,N
1552418775.2,286046999.0,N
1552418795.0,286046998.4,N
1552418795.9,286046998.4,N
1552418815.8,286046996.5,N
1552418835.6,286046997.6,N
1552418855.4,286046995.3,N
1552418875.3,286046997.8,N
1552418895.1,286046997.1,N
1552418915.9,286046996.5,N
1552418935.7,286046998.9,N
1552418955.5,286046999.2,N
1552418975.4,286046998.8,N
1552418995.2,286046999.2,N
1552419015.1,286046998.1,N
1552419016.0,286046998.1,N
1552419035.8,286046998.3,N
1552419055.6,286046999.5,N
1552419075.5,286046999.4,N
1552419095.3,286046999.0,N
1552419115.1,286047000.8,N
1552419135.9,286046998.7,N
1552419155.7,286046997.0,N
1552419175.6,286046998.0,N
1552419195.4,286046998.0,N
1552419215.2,286046995.9,N
1552419235.1,286046997.9,N
1552419236.0,286046997.9,N
1552419255.8,286046995.0,Y
1552419275.6,286046997.8,P
1552419295.5,286046999.3,P
1552419315.3,286046998.4,N
1552419335.2,286046998.6,N
1552419355.9,286046998.7,N
1552419375.7,286046997.5,Y
1552419395.6,286046998.5,P
1552419415.4,286046999.0,P
1552419435.2,286047000.6,N
1552419455.1,286047002.1,N
1552419456.0,286047002.1,N
1552419475.8,286047000.2,N
1552419495.7,286047000.2,N
1552419515.5,286047004.1,Y
1552419535.3,286047003.7,P
1552419555.2,286047001.3,N
1552419575.0,286047001.4,N
1552419575.9,286047001.4,N
1552419595.7,286047002.3,N
1552419615.6,286047002.0,N
1552419635.4,286047001.7,N
1552419655.3,286047002.2,N
1552419675.1,286047001.6,N
1552419676.0,286047001.6,N
1552419695.8,286047001.8,N
1552419715.7,286047001.9,N
1552419735.5,286047001.6,N
1552419755.3,286047001.8,N
1552419775.2,286047001.6,N
1552419795.0,286047001.5,N
1552419795.9,286047001.5,N
1552419815.8,286047002.7,Y
1552419835.6,286047000.2,P
1552419855.4,286047000.3,N
1552419875.3,286047000.5,N
1552419895.1,286046998.4,N
1552419915.9,286047000.9,N
1552419935.7,286047000.7,N
1552419955.5,286046999.9,N
1552419975.4,286047002.7,N
1552419995.2,286047002.5,N
1552420015.0,286047000.1,N
1552420016.0,286047000.1,N
1552420035.8,286047002.6,N
1552420055.6,286046999.8,N
1552420075.5,286047000.4,N
1552420095.3,286047000.0,N
1552420115.1,286047002.6,N
1552420135.9,286046999.7,N
1552420155.7,286047001.1,N
1552420175.5,286047002.8,N
1552420195.4,286047002.5,N
1552420215.2,286047001.2,N
1552420235.1,286047001.0,N
1552420236.0,286047001.0,N
1552420255.8,286046998.8,N
1552420275.6,286046999.6,N
1552420295.5,286046996.5,N
1552420315.3,286046996.5,N
1552420335.1,286046999.1,N
1552420355.9,286046996.7,N
1552420375.7,286046996.6,N
1552420395.6,286046998.9,N
1552420415.4,286046999.5,N
1552420435.2,286046997.0,N
1552420455.1,286046999.0,N
1552420456.0,286046999.0,N
1552420475.8,286046997.1,N
1552420495.7,286046997.1,N
1552420515.5,286046997.4,N
1552420535.3,286046997.4,N
1552420555.2,286046999.5,N
1552420575.9,286046996.9,N
1552420595.7,286046998.8,N
1552420615.6,286046998.8,N
1552420635.4,286046996.7,N
1552420655.2,286046997.5,N
1552420675.1,286046995.7,N
1552420676.0,286046995.7,N
1552420695.8,286046993.3,Y
1552420715.7,286046995.5,P
1552420735.5,286046998.0,N
1552420755.3,286046997.5,N
1552420775.2,286046995.1,Y
1552420795.0,286046998.6,P
1552420795.9,286046998.6,N
